• In Portugal
  • List of Countries
  • For 7 days
  • Water Temperature
  • Satellite Maps
  • Weather Map
  • Weather Widgets
  • user-avatar
    Login

    Hourly Weather Gaborone

    Today, 11 December, Monday

    Time Temperature Precipitation Wind Pressure Humidity
    00:00 +27°C° 0 mm 4 mps 674 mmHg 43%
    01:00 +26°C° 0 mm 3 mps 674 mmHg 44%
    02:00 +26°C° 0 mm 3 mps 674 mmHg 46%
    03:00 +25°C° 0 mm 4 mps 674 mmHg 50%
    04:00 +25°C° 0 mm 5 mps 674 mmHg 55%
    05:00 +23°C° 0 mm 5 mps 674 mmHg 59%
    06:00 +24°C° 0.1 mm 6 mps 675 mmHg 59%
    07:00 +26°C° 0.1 mm 6 mps 675 mmHg 59%
    08:00 +26°C° 0.1 mm 6 mps 676 mmHg 59%
    09:00 +28°C° 0 mm 6 mps 676 mmHg 53%
    10:00 +30°C° 0 mm 6 mps 676 mmHg 46%
    11:00 +33°C° 0 mm 6 mps 676 mmHg 40%
    12:00 +34°C° 0 mm 6 mps 676 mmHg 35%
    13:00 +35°C° 0 mm 5 mps 675 mmHg 30%
    14:00 +36°C° 0 mm 4 mps 675 mmHg 25%
    15:00 +37°C° 0 mm 4 mps 674 mmHg 24%
    16:00 +37°C° 0 mm 4 mps 674 mmHg 23%
    17:00 +37°C° 0 mm 3 mps 673 mmHg 21%
    18:00 +35°C° 0 mm 3 mps 673 mmHg 23%
    19:00 +34°C° 0 mm 3 mps 673 mmHg 25%
    20:00 +31°C° 0 mm 2 mps 672 mmHg 27%
    21:00 +30°C° 0 mm 3 mps 673 mmHg 30%
    22:00 +29°C° 0 mm 3 mps 673 mmHg 32%
    23:00 +29°C° 0 mm 3 mps 673 mmHg 35%

    Tomorrow, 12 December, Tuesday

    Time Temperature Precipitation Wind Pressure Humidity
    00:00 +28°C° 0.3 mm 3 mps 673 mmHg 41%
    01:00 +27°C° 0.3 mm 3 mps 673 mmHg 47%
    02:00 +26°C° 0.3 mm 3 mps 673 mmHg 53%
    03:00 +25°C° 0 mm 3 mps 673 mmHg 55%
    04:00 +25°C° 0 mm 3 mps 673 mmHg 57%
    05:00 +24°C° 0 mm 3 mps 673 mmHg 59%
    06:00 +26°C° 0 mm 4 mps 674 mmHg 54%
    07:00 +28°C° 0 mm 5 mps 674 mmHg 49%
    08:00 +30°C° 0 mm 6 mps 675 mmHg 43%
    09:00 +33°C° 0 mm 6 mps 675 mmHg 38%
    10:00 +35°C° 0 mm 6 mps 675 mmHg 32%
    11:00 +38°C° 0 mm 7 mps 675 mmHg 27%
    12:00 +39°C° 0 mm 6 mps 675 mmHg 24%
    13:00 +40°C° 0 mm 6 mps 674 mmHg 21%
    14:00 +40°C° 0 mm 5 mps 673 mmHg 18%
    15:00 +40°C° 0 mm 5 mps 673 mmHg 19%
    16:00 +39°C° 0 mm 5 mps 672 mmHg 19%
    17:00 +38°C° 0 mm 4 mps 672 mmHg 19%
    18:00 +36°C° 0 mm 4 mps 672 mmHg 23%
    19:00 +35°C° 0 mm 4 mps 673 mmHg 27%
    20:00 +33°C° 0 mm 4 mps 673 mmHg 31%
    21:00 +30°C° 0.6 mm 4 mps 674 mmHg 37%
    22:00 +29°C° 0.6 mm 5 mps 674 mmHg 43%
    23:00 +28°C° 0.6 mm 5 mps 674 mmHg 49%

    Day after tomorrow, 13 December, Wednesday

    Time Temperature Precipitation Wind Pressure Humidity
    00:00 +28°C° 0 mm 4 mps 674 mmHg 47%
    01:00 +27°C° 0 mm 3 mps 674 mmHg 45%
    02:00 +27°C° 0 mm 1 mps 674 mmHg 44%
    03:00 +27°C° 0 mm 1 mps 674 mmHg 44%
    04:00 +27°C° 0 mm 2 mps 674 mmHg 45%
    05:00 +26°C° 0 mm 2 mps 674 mmHg 45%
    06:00 +27°C° 0 mm 2 mps 674 mmHg 46%
    07:00 +27°C° 0 mm 3 mps 675 mmHg 47%
    08:00 +27°C° 0 mm 3 mps 675 mmHg 48%
    09:00 +29°C° 0 mm 3 mps 675 mmHg 40%
    10:00 +31°C° 0 mm 3 mps 675 mmHg 32%
    11:00 +34°C° 0 mm 3 mps 675 mmHg 24%
    12:00 +35°C° 0 mm 3 mps 675 mmHg 21%
    13:00 +36°C° 0 mm 2 mps 675 mmHg 19%
    14:00 +37°C° 0 mm 2 mps 674 mmHg 16%
    15:00 +37°C° 0 mm 2 mps 674 mmHg 16%
    16:00 +37°C° 0 mm 2 mps 673 mmHg 15%
    17:00 +36°C° 0 mm 2 mps 673 mmHg 15%
    18:00 +35°C° 0 mm 2 mps 673 mmHg 17%
    19:00 +32°C° 0 mm 2 mps 673 mmHg 19%
    20:00 +31°C° 0 mm 2 mps 673 mmHg 21%
    21:00 +30°C° 0 mm 2 mps 673 mmHg 23%
    22:00 +29°C° 0 mm 2 mps 673 mmHg 24%
    23:00 +28°C° 0 mm 2 mps 673 mmHg 26%

    14 December, Thursday

    Time Temperature Precipitation Wind Pressure Humidity
    00:00 +27°C° 0 mm 2 mps 673 mmHg 24%
    01:00 +26°C° 0 mm 2 mps 673 mmHg 21%
    02:00 +26°C° 0 mm 2 mps 673 mmHg 19%
    03:00 +25°C° 0 mm 2 mps 673 mmHg 17%
    04:00 +24°C° 0 mm 2 mps 673 mmHg 15%
    05:00 +23°C° 0 mm 2 mps 673 mmHg 13%
    06:00 +25°C° 0 mm 2 mps 674 mmHg 13%
    07:00 +27°C° 0 mm 3 mps 675 mmHg 12%
    08:00 +29°C° 0 mm 3 mps 676 mmHg 12%
    09:00 +31°C° 0 mm 2 mps 676 mmHg 11%
    10:00 +35°C° 0 mm 2 mps 676 mmHg 9%
    11:00 +37°C° 0 mm 2 mps 676 mmHg 8%
    12:00 +37°C° 0 mm 3 mps 676 mmHg 7%
    13:00 +38°C° 0 mm 4 mps 675 mmHg 7%
    14:00 +40°C° 0 mm 5 mps 675 mmHg 7%
    15:00 +40°C° 0 mm 5 mps 675 mmHg 6%
    16:00 +39°C° 0 mm 6 mps 674 mmHg 6%
    17:00 +39°C° 0 mm 6 mps 674 mmHg 6%
    18:00 +36°C° 0 mm 5 mps 674 mmHg 8%
    19:00 +34°C° 0 mm 4 mps 674 mmHg 9%
    20:00 +31°C° 0 mm 3 mps 674 mmHg 11%
    21:00 +30°C° 0 mm 3 mps 674 mmHg 12%
    22:00 +29°C° 0 mm 3 mps 674 mmHg 13%
    23:00 +28°C° 0 mm 3 mps 675 mmHg 14%

    15 December, Friday

    Time Temperature Precipitation Wind Pressure Humidity
    00:00 +27°C° 0 mm 3 mps 675 mmHg 15%
    01:00 +26°C° 0 mm 3 mps 674 mmHg 17%
    02:00 +26°C° 0 mm 3 mps 674 mmHg 18%
    03:00 +25°C° 0 mm 3 mps 675 mmHg 26%
    04:00 +24°C° 0 mm 3 mps 675 mmHg 34%
    05:00 +22°C° 0 mm 3 mps 675 mmHg 41%
    06:00 +23°C° 0 mm 5 mps 676 mmHg 49%
    07:00 +23°C° 0 mm 6 mps 676 mmHg 56%
    08:00 +24°C° 0 mm 7 mps 677 mmHg 63%
    09:00 +26°C° 0 mm 7 mps 677 mmHg 58%
    10:00 +27°C° 0 mm 7 mps 678 mmHg 53%
    11:00 +28°C° 0 mm 7 mps 678 mmHg 48%
    12:00 +29°C° 0 mm 7 mps 678 mmHg 44%
    13:00 +32°C° 0 mm 7 mps 678 mmHg 40%
    14:00 +33°C° 0 mm 6 mps 677 mmHg 35%
    15:00 +32°C° 1.1 mm 6 mps 677 mmHg 40%
    16:00 +29°C° 1.1 mm 5 mps 676 mmHg 44%
    17:00 +28°C° 1.1 mm 4 mps 676 mmHg 49%
    18:00 +27°C° 2.1 mm 4 mps 676 mmHg 55%
    19:00 +25°C° 2.1 mm 4 mps 676 mmHg 62%
    20:00 +23°C° 2.1 mm 5 mps 676 mmHg 68%
    21:00 +23°C° 0.1 mm 5 mps 677 mmHg 70%
    22:00 +22°C° 0.1 mm 5 mps 677 mmHg 71%
    23:00 +22°C° 0.1 mm 5 mps 677 mmHg 73%

    16 December, Saturday

    Time Temperature Precipitation Wind Pressure Humidity
    00:00 +22°C° 0 mm 5 mps 677 mmHg 74%
    01:00 +21°C° 0 mm 5 mps 677 mmHg 74%
    02:00 +21°C° 0 mm 5 mps 677 mmHg 75%
    03:00 +20°C° 0 mm 5 mps 677 mmHg 75%
    04:00 +20°C° 0 mm 5 mps 677 mmHg 75%
    05:00 +20°C° 0 mm 5 mps 677 mmHg 76%
    06:00 +20°C° 0 mm 5 mps 678 mmHg 73%
    07:00 +20°C° 0 mm 5 mps 678 mmHg 71%
    08:00 +21°C° 0 mm 6 mps 679 mmHg 68%
    09:00 +23°C° 0 mm 6 mps 679 mmHg 62%
    10:00 +25°C° 0 mm 5 mps 679 mmHg 56%
    11:00 +27°C° 0 mm 5 mps 679 mmHg 50%
    12:00 +28°C° 0 mm 5 mps 678 mmHg 46%
    13:00 +30°C° 0 mm 5 mps 678 mmHg 42%
    14:00 +32°C° 0 mm 5 mps 677 mmHg 37%
    15:00 +32°C° 0 mm 4 mps 677 mmHg 36%
    16:00 +33°C° 0 mm 4 mps 677 mmHg 35%
    17:00 +33°C° 0 mm 4 mps 676 mmHg 34%
    18:00 +30°C° 0 mm 3 mps 676 mmHg 37%
    19:00 +29°C° 0 mm 3 mps 676 mmHg 40%
    20:00 +27°C° 0 mm 3 mps 676 mmHg 44%
    21:00 +27°C° 0 mm 3 mps 677 mmHg 45%
    22:00 +26°C° 0 mm 3 mps 677 mmHg 47%
    23:00 +25°C° 0 mm 3 mps 677 mmHg 48%
    Show more